1504292401.12,58308,24.81,73980.3,7.57,4.05,6.11,0,*79
1504292402.34,58309,24.81,73980.0,7.57,4.11,6.13,0,*7F
1504292403.57,58310,24.81,73980.0,7.57,4.05,6.07,0,*77
1504292404.77,58311,24.81,73980.5,7.57,4.15,6.21,0,*73
1504292406.0,58312,24.81,73976.5,7.57,4.27,6.13,0,*70
1504292407.2,58313,24.81,73978.0,7.57,4.33,6.21,0,*75
1504292408.43,58314,24.81,73978.8,7.57,4.59,6.21,0,*7E
1504292409.63,58315,24.81,73976.5,7.55,4.79,6.21,0,*7F
1504292410.86,58316,24.81,73976.5,7.57,4.93,6.33,0,*79
1504292412.09,58317,24.81,73976.5,7.57,5.05,6.33,0,*76
1504292413.31,58318,24.81,73976.3,7.57,5.29,6.43,0,*70
1504292414.51,58319,24.81,73978.5,7.55,5.49,6.39,0,*78
1504292415.76,58320,24.81,73982.3,7.57,5.55,6.47,0,*74
1504292416.98,58321,24.81,73982.5,7.57,5.67,6.53,0,*71
1504292418.24,58322,24.81,73980.0,7.57,5.85,6.47,0,*7B
1504292419.5,58323,24.81,73980.5,7.57,5.89,6.47,0,*76
1504292420.73,58324,24.81,73978.5,7.57,5.99,6.47,0,*70
1504292421.95,58325,24.81,73982.3,7.57,5.99,6.53,0,*74
1504292423.19,58326,24.81,73982.5,7.57,5.99,6.47,0,*72
1504292424.41,58327,24.81,73980.8,7.57,6.07,6.43,0,*73
1504292425.64,58328,24.81,73982.3,7.57,6.07,6.35,0,*7D
1504292426.87,58329,24.81,73984.5,7.57,6.11,6.43,0,*7A
1504292428.1,58330,24.81,73986.5,7.57,6.07,6.47,0,*71
1504292429.32,58331,24.81,73988.0,7.57,6.11,6.53,0,*72
1504292430.52,58332,24.81,73990.0,7.59,6.25,6.69,0,*71
1504292431.73,58333,24.81,73988.5,7.59,6.25,6.61,0,*78
1504292432.93,58334,24.81,73990.0,7.59,6.25,6.69,0,*77
1504292434.12,58335,24.81,73988.0,7.59,6.11,6.57,0,*7C
1504292435.33,58336,24.81,73986.8,7.59,6.03,6.39,0,*74
1504292436.55,58337,24.81,73984.5,7.59,6.03,6.47,0,*7C
1504292437.78,58338,24.81,73986.3,7.61,5.99,6.47,0,*78
1504292439.02,58339,24.81,73984.5,7.59,5.93,6.47,0,*78
1504292440.25,58340,24.81,73984.8,7.59,5.93,6.51,0,*71
1504292441.49,58341,24.81,73986.3,7.59,5.93,6.47,0,*77
1504292442.72,58342,24.81,73980.8,7.59,5.93,6.39,0,*7D
1504292443.95,58343,24.81,73984.8,7.59,5.93,6.47,0,*75
1504292445.18,58344,24.81,73986.5,7.59,5.93,6.39,0,*7B
1504292446.39,58345,24.81,73984.0,7.59,5.99,6.39,0,*70
1504292447.63,58346,24.81,73982.8,7.61,6.03,6.47,0,*71
1504292448.84,58347,24.81,73984.3,7.59,6.03,6.39,0,*72
1504292450.07,58348,24.81,73984.0,7.61,5.99,6.35,0,*7A
1504292451.28,58349,24.81,73982.8,7.61,6.03,6.29,0,*76
1504292452.51,58350,24.81,73980.5,7.61,5.93,6.29,0,*74
1504292453.75,58351,24.81,73980.0,7.61,5.93,6.25,0,*79
1504292454.98,58352,24.81,73988.3,7.61,5.93,6.25,0,*7A
1504292456.24,58353,24.81,73982.8,7.61,5.89,6.17,0,*71
1504292457.47,58354,24.81,73986.8,7.61,5.89,6.03,0,*73
1504292458.71,58355,24.81,73986.8,7.61,5.67,5.81,0,*7B
1504292459.91,58356,24.81,73984.0,7.61,5.41,5.59,0,*79
1504292461.11,58357,24.81,73984.8,7.61,5.29,5.49,0,*77
1504292462.32,58358,24.81,73984.5,7.61,5.11,5.41,0,*7B
1504292463.52,58359,24.81,73984.5,7.61,4.89,5.33,0,*7F
1504292464.76,58360,24.81,73984.5,7.61,4.75,5.19,0,*7E
1504292466.0,58361,24.81,73984.5,7.61,4.75,5.19,0,*7F
1504292467.24,58362,24.81,73984.0,7.61,4.75,5.19,0,*7C
1504292468.46,58363,24.81,73984.8,7.61,4.75,5.29,0,*7E
1504292469.67,58364,24.81,73986.5,7.61,4.85,5.41,0,*78
1504292470.87,58365,24.81,73982.0,7.59,4.97,5.45,0,*75
1504292472.07,58366,24.81,73978.5,7.61,5.07,5.41,0,*71
1504292473.3,58367,24.81,73978.0,7.61,5.01,5.29,0,*78
1504292474.51,58368,24.81,73982.8,7.61,4.89,5.07,0,*7A
1504292475.72,58369,24.81,73980.5,7.63,4.71,4.89,0,*79
1504292476.9,58370,24.81,73982.5,7.63,4.41,4.57,0,*71
1504292478.1,58371,24.81,73984.0,7.63,4.01,4.33,0,*76
1504292479.3,58372,24.81,73984.8,7.61,3.59,4.19,0,*75
1504292480.53,58373,24.81,73988.3,7.63,2.81,3.71,0,*7B
1504292481.78,58374,24.81,73990.5,7.61,1.51,3.07,0,*71
1504292483.02,58375,24.81,73992.3,7.61,0.13,2.25,0,*46
1504292484.25,58376,24.81,73988.3,7.61,-1.51,1.17,0,*5D
1504292485.51,58377,24.81,73988.5,7.61,-2.63,0.33,0,*69
1504292486.72,58378,24.81,73988.8,7.61,-3.79,-0.61,0,*46
1504292487.97,58379,24.81,73986.8,7.61,-4.21,-1.05,0,*7E
1504292489.19,58380,24.81,73990.3,7.61,-4.53,-1.17,0,*7E
1504292490.45,58381,24.81,73988.8,7.61,-4.69,-1.35,0,*76
1504292491.69,58382,24.81,73990.5,7.63,-5.07,-1.99,0,*78
1504292492.9,58383,24.81,73988.8,7.59,-5.11,-2.23,0,*75
1504292494.12,58384,24.81,73986.0,7.59,-4.57,-1.91,0,*7B
1504292495.36,58385,24.81,73988.0,7.61,-3.63,-1.25,0,*7E
1504292496.57,58386,24.81,73988.0,7.61,-2.87,-0.61,0,*47
1504292497.79,58387,24.81,73988.3,7.59,-2.63,-0.19,0,*48
1504292499.02,58388,24.81,73988.0,7.61,-2.31,0.37,0,*6A
1504292500.25,58389,24.81,73988.5,7.61,-2.03,0.97,0,*60
1504292501.45,58390,24.81,73990.5,7.59,-1.75,1.17,0,*58
1504292502.71,58391,24.81,73994.0,7.61,-1.91,1.17,0,*58
1504292503.94,58392,24.81,73988.0,7.59,-2.11,0.83,0,*67
1504292505.17,58393,24.81,73982.5,7.61,-2.27,0.59,0,*6F
1504292506.38,58394,24.81,73984.0,7.59,-2.27,0.55,0,*6F
1504292507.58,58395,24.81,73990.8,7.59,-2.23,0.55,0,*6A
1504292508.78,58396,24.81,73988.0,7.59,-2.79,0.37,0,*62
1504292509.99,58397,24.81,73988.3,7.59,-3.39,0.13,0,*60
1504292511.17,58398,24.81,73992.0,7.59,-4.09,-0.07,0,*73
1504292512.35,58399,24.81,73990.0,7.59,-4.41,-0.07,0,*7E
1504292513.59,58400,24.75,73984.0,7.61,-5.07,-0.07,0,*71
1504292514.83,58401,24.81,73988.8,7.57,-5.23,-0.19,0,*4C
1504292516.02,58402,24.81,73988.3,7.59,-4.45,0.33,0,*65
1504292517.23,58403,24.81,73990.3,7.59,-3.91,0.67,0,*6B
1504292518.46,58404,24.81,73992.0,7.59,-3.63,0.95,0,*6C
1504292519.69,58405,24.81,73990.5,7.57,-4.09,0.91,0,*6C
1504292520.93,58406,24.81,73990.5,7.57,-4.77,0.75,0,*6C
1504292522.17,58407,24.81,73994.3,7.57,-5.51,0.79,0,*64
1504292523.41,58408,24.81,73988.5,7.57,-5.77,0.95,0,*6D
1504292524.67,58409,24.81,73994.5,7.57,-5.61,1.25,0,*51
1504292525.9,58410,24.81,73990.0,7.55,-5.19,1.55,0,*53
1504292527.15,58411,24.81,73988.0,7.57,-4.85,2.01,0,*56
1504292528.38,58412,24.81,73990.3,7.57,-4.49,2.39,0,*5E
1504292529.59,58413,24.81,73990.3,7.55,-4.13,2.69,0,*57
1504292530.85,58414,24.81,73988.8,7.57,-3.67,3.15,0,*5C
1504292532.08,58415,24.81,73992.5,7.57,-3.03,3.53,0,*5D
1504292533.31,58416,24.81,73986.5,7.57,-2.31,3.67,0,*59
1504292534.52,58417,24.81,73992.0,7.57,-1.59,3.93,0,*5E
1504292535.74,58418,24.81,73988.5,7.57,-0.93,3.93,0,*66
1504292536.93,58419,24.81,73986.8,7.55,-0.15,4.07,0,*61
1504292538.13,58420,24.81,73984.3,7.55,0.71,4.23,0,*42
1504292539.35,58421,24.81,73986.3,7.55,1.37,4.33,0,*71
1504292540.56,58422,24.81,73984.5,7.55,1.85,4.41,0,*7E
1504292541.77,58423,24.81,73986.0,7.57,2.35,4.57,0,*72
1504292542.98,58424,24.81,73984.8,7.55,2.59,4.53,0,*79
1504292544.19,58425,24.81,73982.8,7.55,2.81,4.57,0,*79
1504292545.44,58426,24.81,73984.0,7.57,3.19,4.75,0,*78
1504292546.65,58427,24.81,73986.3,7.55,3.49,4.81,0,*75
1504292547.82,58428,24.81,73984.0,7.55,3.59,4.89,0,*73
1504292549.01,58429,24.81,73980.5,7.55,3.81,5.11,0,*77
1504292550.2,58430,24.81,73982.3,7.55,4.07,5.33,0,*76
1504292551.43,58431,24.81,73982.0,7.57,4.37,5.51,0,*72
1504292552.64,58432,24.81,73980.3,7.55,4.53,5.51,0,*71
1504292553.88,58433,24.81,73988.3,7.55,4.71,5.51,0,*70
1504292555.08,58434,24.81,73984.0,7.57,4.85,5.63,0,*7F
1504292556.27,58435,24.81,73984.5,7.59,5.19,5.71,0,*77
1504292557.49,58436,24.81,73990.3,7.57,5.41,5.77,0,*71
1504292558.69,58437,24.81,73988.3,7.55,5.37,5.73,0,*77
1504292559.91,58438,24.81,73984.5,7.57,5.45,5.85,0,*76
1504292561.11,58439,24.81,73980.3,7.55,5.41,5.77,0,*7C
1504292562.33,58440,24.81,73978.0,7.57,5.45,5.85,0,*79
1504292563.51,58441,24.81,73982.8,7.55,5.33,5.71,0,*70
1504292564.71,58442,24.81,73976.5,7.55,5.33,5.73,0,*71
1504292565.91,58443,24.75,73976.3,7.55,5.27,5.71,0,*77
1504292567.09,58444,24.81,73982.8,7.55,5.23,5.63,0,*77
1504292568.3,58445,24.75,73974.8,7.55,5.05,5.63,0,*72
1504292569.5,58446,24.81,73980.3,7.57,5.07,5.63,0,*71
1504292570.69,58447,24.81,73978.5,7.55,4.89,5.59,0,*7C
1504292571.9,58448,24.81,73978.5,7.55,4.93,5.59,0,*78
1504292573.13,58449,24.81,73970.8,7.57,4.93,5.63,0,*72
1504292574.35,58450,24.81,73968.0,7.55,4.93,5.59,0,*71
1504292575.56,58451,24.81,73968.8,7.55,4.93,5.59,0,*70
1504292576.8,58452,24.81,73968.3,7.53,5.05,5.59,0,*7B
1504292578.04,58453,24.81,73972.0,7.53,5.05,5.63,0,*73
1504292579.22,58454,24.81,73968.0,7.55,5.11,5.63,0,*77
1504292580.43,58455,24.81,73970.8,7.53,5.11,5.71,0,*73
1504292581.64,58456,24.81,73968.5,7.53,5.11,5.63,0,*73
1504292582.85,58457,24.81,73974.5,7.53,5.11,5.59,0,*7B
1504292584.06,58458,24.81,73974.5,7.53,5.11,5.63,0,*7D
1504292585.27,58459,24.81,73974.0,7.53,5.23,5.63,0,*7D
1504292586.47,58460,24.81,73978.0,7.55,5.23,5.73,0,*70
1504292587.71,58461,24.81,73976.3,7.53,5.33,5.85,0,*7F
1504292588.96,58462,24.81,73972.0,7.53,5.51,5.93,0,*7F
1504292590.16,58463,24.75,73970.5,7.53,5.71,6.07,0,*72
1504292591.42,58464,24.81,73962.8,7.53,5.81,6.17,0,*7B
1504292592.68,58465,24.81,73962.8,7.53,5.93,6.17,0,*79
1504292593.91,58466,24.81,73962.0,7.53,6.07,6.17,0,*74
1504292595.11,58467,24.81,73956.0,7.51,5.99,6.13,0,*77
1504292596.31,58468,24.81,73952.5,7.51,6.07,6.13,0,*7C
1504292597.54,58469,24.75,73944.8,7.51,6.13,6.13,0,*78
1504292598.77,58470,24.81,73950.3,7.53,6.11,6.17,0,*74
1504292600.03,58471,24.81,73946.5,7.53,6.17,6.17,0,*73
1504292601.29,58472,24.81,73946.0,7.53,6.17,6.17,0,*70
1504292602.5,58473,24.75,73940.0,7.53,6.29,6.29,0,*71
1504292603.73,58474,24.81,73944.8,7.51,6.17,6.17,0,*74
1504292604.91,58475,24.81,73950.0,7.51,6.29,6.29,0,*75
1504292606.15,58476,24.81,73948.5,7.53,6.33,6.39,0,*7E
1504292607.41,58477,24.81,73952.0,7.53,6.39,6.43,0,*78
1504292608.67,58478,24.81,73954.0,7.53,6.43,6.39,0,*77
1504292609.91,58479,24.81,73948.8,7.53,6.39,6.33,0,*71
1504292611.15,58480,24.81,73952.3,7.53,6.33,6.39,0,*77
1504292612.42,58481,24.81,73960.5,7.53,6.43,6.35,0,*7D
1504292613.68,58482,24.81,73960.8,7.53,6.43,6.39,0,*72
1504292614.92,58483,24.81,73968.3,7.53,6.43,6.33,0,*79
1504292616.18,58484,24.81,73964.3,7.53,6.43,6.43,0,*79
1504292617.45,58485,24.75,73966.3,7.53,6.39,6.47,0,*71
1504292618.71,58486,24.81,73968.8,7.53,6.43,6.43,0,*7B
1504292619.98,58487,24.81,73974.5,7.53,6.43,6.43,0,*7A
1504292621.21,58488,24.75,73970.8,7.51,6.39,6.39,0,*77
1504292622.47,58489,24.75,73974.3,7.53,6.51,6.51,0,*74
1504292623.74,58490,24.75,73970.5,7.53,6.39,6.43,0,*71
1504292624.99,58491,24.75,73968.0,7.53,6.39,6.39,0,*7D
1504292626.26,58492,24.81,73978.8,7.53,6.51,6.51,0,*7E
1504292627.5,58493,24.81,73982.0,7.55,6.51,6.43,0,*7A
1504292628.75,58494,24.75,73976.8,7.55,6.51,6.51,0,*7E
1504292629.98,58495,24.81,73978.5,7.55,6.39,6.43,0,*72
1504292631.24,58496,24.81,73980.5,7.57,6.47,6.47,0,*7E
1504292632.48,58497,24.81,73976.3,7.55,6.43,6.51,0,*7E
1504292633.72,58498,24.81,73976.3,7.55,6.43,6.51,0,*71
1504292634.96,58499,24.75,73976.5,7.57,6.53,6.53,0,*71
1504292636.2,58500,24.81,73978.0,7.55,6.51,6.53,0,*70
1504292637.44,58501,24.81,73978.0,7.55,6.51,6.51,0,*73
1504292638.68,58502,24.75,73974.8,7.55,6.51,6.51,0,*70
1504292639.92,58503,24.81,73978.3,7.55,6.51,6.51,0,*71
1504292641.16,58504,24.75,73974.3,7.55,6.51,6.43,0,*75
1504292642.41,58505,24.75,73974.8,7.57,6.53,6.53,0,*75
1504292643.66,58506,24.75,73970.3,7.57,6.53,6.47,0,*73
1504292644.89,58507,24.81,73972.8,7.55,6.51,6.53,0,*77
1504292646.12,58508,24.75,73970.5,7.55,6.61,6.53,0,*7B
1504292647.37,58509,24.81,73970.8,7.57,6.57,6.53,0,*7D
1504292648.61,58510,24.81,73974.3,7.57,6.53,6.53,0,*71
1504292649.83,58511,24.81,73974.3,7.55,6.53,6.53,0,*72
1504292651.06,58512,24.81,73974.5,7.55,6.61,6.61,0,*71
1504292652.29,58513,24.75,73970.3,7.55,6.65,6.53,0,*75
1504292653.54,58514,24.81,73974.3,7.57,6.57,6.57,0,*75
1504292654.78,58515,24.81,73976.3,7.57,6.57,6.57,0,*74
1504292656.02,58516,24.81,73972.5,7.57,6.57,6.57,0,*77
1504292657.27,58517,24.81,73974.8,7.57,6.57,6.57,0,*76
1504292658.52,58518,24.75,73972.0,7.57,6.65,6.65,0,*79
1504292659.77,58519,24.81,73976.0,7.57,6.57,6.65,0,*79
1504292661.01,58520,24.75,73974.3,7.57,6.53,6.57,0,*76
1504292662.25,58521,24.75,73974.8,7.57,6.53,6.57,0,*77
1504292663.5,58522,24.75,73972.5,7.57,6.65,6.57,0,*71
1504292664.75,58523,24.75,73974.5,7.57,6.57,6.65,0,*70
1504292665.98,58524,24.75,73972.0,7.55,6.61,6.65,0,*70
1504292667.24,58525,24.81,73978.8,7.57,6.65,6.65,0,*77
1504292668.46,58526,24.81,73976.3,7.59,6.61,6.69,0,*72
1504292669.68,58527,24.81,73976.0,7.59,6.69,6.69,0,*7B
1504292670.9,58528,24.75,73972.8,7.59,6.69,6.69,0,*74
1504292672.14,58529,24.81,73974.5,7.61,6.69,6.69,0,*7E
1504292673.39,58530,24.75,73972.3,7.61,6.61,6.69,0,*7E
1504292674.64,58531,24.75,73968.3,7.61,6.69,6.61,0,*7F
1504292675.86,58532,24.75,73974.8,7.59,6.61,6.69,0,*77
1504292677.08,58533,24.75,73970.8,7.59,6.57,6.61,0,*7B
1504292678.34,58534,24.75,73972.8,7.61,6.39,6.47,0,*7B
1504292679.61,58535,24.75,73972.0,7.61,6.47,6.47,0,*73
1504292680.84,58536,24.75,73972.3,7.59,6.47,6.51,0,*7C
1504292682.1,58537,24.81,73976.0,7.61,6.51,6.57,0,*77
1504292683.33,58538,24.75,73974.3,7.59,6.57,6.51,0,*73
1504292684.59,58539,24.75,73974.0,7.61,6.47,6.51,0,*78
1504292685.83,58540,24.75,73974.5,7.59,6.47,6.51,0,*7D
1504292687.08,58541,24.75,73972.5,7.61,6.39,6.39,0,*70
1504292688.32,58542,24.75,73974.3,7.59,6.47,6.47,0,*78
1504292689.55,58543,24.75,73974.5,7.59,6.39,6.47,0,*70
1504292690.79,58544,24.75,73972.0,7.59,6.39,6.47,0,*77
1504292692.02,58545,24.81,73972.8,7.59,6.39,6.47,0,*76
1504292693.26,58546,24.81,73974.0,7.59,6.51,6.51,0,*7C
1504292694.48,58547,24.75,73970.5,7.59,6.57,6.61,0,*78
1504292695.72,58548,24.75,73974.0,7.59,6.51,6.51,0,*72
1504292696.94,58549,24.75,73974.3,7.59,6.57,6.57,0,*73
1504292698.16,58550,24.81,73974.3,7.59,6.61,6.61,0,*7B
1504292699.38,58551,24.81,73974.3,7.59,6.61,6.69,0,*72
1504292700.59,58552,24.75,73974.0,7.63,6.73,6.75,0,*76
1504292701.83,58553,24.75,73974.3,7.61,6.69,6.73,0,*78
1504292703.08,58554,24.75,73974.3,7.61,6.69,6.69,0,*74
1504292704.32,58555,24.75,73972.3,7.61,6.69,6.69,0,*75
1504292705.57,58556,24.75,73974.8,7.61,6.61,6.61,0,*76
1504292706.82,58557,24.75,73974.5,7.61,6.69,6.69,0,*77
1504292708.05,58558,24.75,73976.8,7.63,6.73,6.65,0,*7D
1504292709.3,58559,24.75,73976.0,7.61,6.61,6.61,0,*79
1504292710.55,58560,24.75,73976.0,7.61,6.61,6.61,0,*73
1504292711.8,58561,24.75,73980.0,7.61,6.61,6.61,0,*72
1504292713.05,58562,24.75,73976.3,7.61,6.57,6.57,0,*71
1504292714.26,58563,24.75,73976.0,7.63,6.53,6.61,0,*73
1504292715.48,58564,24.81,73980.3,7.63,6.53,6.53,0,*75
1504292716.71,58565,24.75,73976.0,7.63,6.43,6.53,0,*75
1504292717.93,58566,24.75,73978.5,7.63,6.51,6.53,0,*75
1504292719.16,58567,24.75,73976.8,7.63,6.51,6.65,0,*71
1504292720.42,58568,24.75,73980.0,7.61,6.51,6.61,0,*78
1504292721.64,58569,24.75,73982.5,7.63,6.53,6.53,0,*78
1504292722.86,58570,24.75,73980.0,7.63,6.61,6.53,0,*71
1504292724.11,58571,24.75,73982.5,7.65,6.51,6.53,0,*75
1504292725.33,58572,24.75,73980.0,7.63,6.53,6.61,0,*73
1504292726.55,58573,24.75,73982.0,7.63,6.53,6.61,0,*72
1504292727.76,58574,24.75,73976.5,7.63,6.53,6.61,0,*75
1504292729.02,58575,24.75,73982.5,7.65,6.61,6.65,0,*77
1504292730.23,58576,24.75,73980.8,7.63,6.53,6.61,0,*77
1504292731.45,58577,24.75,73978.5,7.63,6.53,6.53,0,*77
1504292732.68,58578,24.75,73980.8,7.63,6.43,6.51,0,*7B
1504292733.92,58579,24.75,73980.5,7.63,6.51,6.51,0,*79
1504292735.15,58580,24.75,73982.0,7.63,6.51,6.51,0,*7F
1504292736.39,58581,24.75,73980.3,7.63,6.51,6.51,0,*7E
1504292737.64,58582,24.75,73978.0,7.65,6.51,6.53,0,*79
1504292738.9,58583,24.75,73980.0,7.65,6.51,6.61,0,*79
1504292740.13,58584,24.75,73980.3,7.63,6.51,6.61,0,*78
1504292741.34,58585,24.75,73980.8,7.63,6.53,6.61,0,*7B
1504292742.59,58586,24.75,73984.0,7.65,6.61,6.61,0,*7F
1504292743.81,58587,24.75,73980.0,7.63,6.53,6.65,0,*7D
1504292745.06,58588,24.75,73980.8,7.65,6.53,6.61,0,*70
1504292746.3,58589,24.75,73978.3,7.65,6.53,6.61,0,*71
1504292747.55,58590,24.75,73980.8,7.65,6.61,6.61,0,*78
1504292748.79,58591,24.81,73984.8,7.65,6.53,6.61,0,*78
1504292750.01,58592,24.75,73980.3,7.63,6.61,6.65,0,*78
1504292751.23,58593,24.75,73986.0,7.63,6.61,6.61,0,*7D
1504292752.45,58594,24.75,73982.5,7.63,6.53,6.61,0,*7B
1504292753.67,58595,24.75,73982.8,7.63,6.53,6.61,0,*7A
1504292754.89,58596,24.75,73984.0,7.67,6.57,6.57,0,*7C
1504292756.12,58597,24.75,73984.0,7.63,6.51,6.61,0,*7A
1504292757.37,58598,24.75,73980.0,7.65,6.51,6.61,0,*73
1504292758.61,58599,24.75,73980.5,7.65,6.53,6.61,0,*70
1504292759.83,58600,24.75,73984.3,7.63,6.61,6.61,0,*74
1504292761.05,58601,24.75,73982.5,7.63,6.53,6.53,0,*75
1504292762.3,58602,24.75,73980.0,7.65,6.61,6.61,0,*70
1504292763.52,58603,24.75,73984.3,7.63,6.61,6.61,0,*77
1504292764.77,58604,24.75,73980.0,7.65,6.61,6.65,0,*72
1504292765.99,58605,24.75,73982.3,7.67,6.69,6.69,0,*75
1504292767.21,58606,24.75,73982.8,7.63,6.65,6.73,0,*75
1504292768.43,58607,24.75,73980.8,7.63,6.53,6.65,0,*76
1504292769.68,58608,24.75,73982.5,7.65,6.65,6.73,0,*7D
1504292770.9,58609,24.75,73980.5,7.63,6.61,6.73,0,*7E
1504292772.13,58610,24.75,73982.5,7.67,6.65,6.65,0,*71
1504292773.35,58611,24.75,73982.3,7.67,6.65,6.69,0,*7C
1504292774.57,58612,24.75,73984.8,7.67,6.69,6.69,0,*73
1504292775.82,58613,24.75,73982.3,7.65,6.65,6.65,0,*70
1504292777.07,58614,24.75,73984.3,7.65,6.65,6.73,0,*70
1504292778.32,58615,24.75,73984.3,7.65,6.65,6.73,0,*71
1504292779.54,58616,24.75,73984.8,7.67,6.69,6.69,0,*77
1504292780.75,58617,24.75,73984.8,7.67,6.57,6.57,0,*76
1504292781.98,58618,24.75,73984.0,7.67,6.57,6.65,0,*78
1504292783.2,58619,24.75,73984.0,7.67,6.57,6.53,0,*7C
1504292784.42,58620,24.75,73982.3,7.67,6.57,6.65,0,*73
1504292785.64,58621,24.75,73982.3,7.67,6.57,6.57,0,*73
1504292786.85,58622,24.75,73980.8,7.67,6.57,6.57,0,*70
1504292788.1,58623,24.75,73982.0,7.65,6.61,6.53,0,*72
1504292789.32,58624,24.75,73982.3,7.67,6.57,6.65,0,*77
1504292790.55,58625,24.75,73978.3,7.67,6.57,6.65,0,*76
1504292791.76,58626,24.75,73980.0,7.67,6.57,6.57,0,*74
1504292793.01,58627,24.75,73982.3,7.65,6.53,6.53,0,*77
1504292794.25,58628,24.75,73980.5,7.65,6.61,6.61,0,*78
1504292795.5,58629,24.75,73980.0,7.65,6.53,6.53,0,*79
1504292796.72,58630,24.75,73986.0,7.67,6.47,6.53,0,*76
1504292797.95,58631,24.75,73982.3,7.71,6.53,6.47,0,*70
1504292799.21,58632,24.75,73984.0,7.65,6.51,6.39,0,*7D
1504292800.43,58633,24.75,73986.3,7.67,6.53,6.43,0,*71
1504292801.66,58634,24.75,73984.0,7.67,6.43,6.35,0,*76
1504292802.89,58635,24.75,73982.8,7.71,6.47,6.39,0,*78
1504292804.11,58636,24.75,73986.0,7.71,6.39,6.39,0,*72
1504292805.33,58637,24.75,73986.3,7.67,6.35,6.33,0,*72
1504292806.54,58638,24.75,73988.3,7.67,6.35,6.33,0,*7D
1504292807.75,58639,24.75,73984.5,7.67,6.43,6.33,0,*7D
1504292808.96,58640,24.75,73988.3,7.67,6.35,6.33,0,*72
1504292810.17,58641,24.75,73988.5,7.67,6.35,6.33,0,*73
1504292811.37,58642,24.75,73986.3,7.67,6.39,6.33,0,*7C
1504292812.58,58643,24.75,73986.8,7.67,6.35,6.25,0,*76
1504292813.81,58644,24.75,73984.0,7.67,6.35,6.17,0,*70
1504292815.0,58645,24.75,73984.5,7.67,6.33,6.21,0,*72
1504292816.18,58646,24.75,73986.5,7.67,6.33,6.25,0,*75
1504292817.36,58647,24.75,73986.0,7.67,6.33,6.25,0,*74
1504292818.57,58648,24.75,73984.8,7.67,6.35,6.25,0,*7D
1504292819.75,58649,24.75,73982.8,7.67,6.25,6.21,0,*79
1504292820.93,58650,24.75,73984.0,7.67,6.21,6.07,0,*71
1504292822.13,58651,24.75,73982.5,7.67,6.17,6.11,0,*72
1504292823.31,58652,24.75,73984.0,7.67,6.21,6.21,0,*77
1504292824.5,58653,24.75,73980.5,7.67,6.25,6.21,0,*72
1504292825.72,58654,24.75,73982.5,7.65,6.21,6.13,0,*72
1504292826.95,58655,24.75,73976.0,7.65,6.21,6.13,0,*73
1504292828.13,58656,24.75,73978.0,7.67,6.25,6.21,0,*77
1504292829.34,58657,24.75,73980.5,7.67,6.21,6.17,0,*77
1504292830.55,58658,24.75,73978.3,7.65,6.29,6.21,0,*77
1504292831.76,58659,24.75,73972.8,7.65,6.29,6.29,0,*7E
1504292832.96,58660,24.75,73976.8,7.65,6.29,6.29,0,*74
1504292834.15,58661,24.75,73972.3,7.67,6.25,6.33,0,*70
1504292835.33,58662,24.75,73974.8,7.67,6.25,6.33,0,*73
1504292836.52,58663,24.75,73972.5,7.67,6.33,6.33,0,*75
1504292837.7,58664,24.75,73970.0,7.67,6.33,6.33,0,*72
1504292838.91,58665,24.75,73966.8,7.67,6.33,6.35,0,*75
1504292840.12,58666,24.75,73966.5,7.67,6.25,6.35,0,*71
1504292841.33,58667,24.75,73964.8,7.67,6.33,6.43,0,*76
1504292842.54,58668,24.75,73966.5,7.67,6.33,6.43,0,*79
1504292843.78,58669,24.75,73972.5,7.67,6.35,6.35,0,*7F
1504292845.01,58670,24.75,73974.5,7.67,6.43,6.35,0,*76
1504292846.26,58671,24.75,73974.0,7.65,6.39,6.39,0,*74
1504292847.52,58672,24.75,73974.3,7.65,6.51,6.39,0,*79
1504292848.75,58673,24.75,73974.5,7.65,6.43,6.33,0,*71
1504292849.96,58674,24.75,73974.5,7.65,6.29,6.21,0,*79
1504292851.17,58675,24.75,73980.3,7.65,6.29,6.29,0,*70
1504292852.37,58676,24.75,73976.3,7.65,6.21,6.29,0,*7B
1504292853.58,58677,24.75,73972.0,7.65,6.21,6.21,0,*72
1504292854.79,58678,24.75,73974.5,7.65,6.21,6.21,0,*7D
1504292855.97,58679,24.75,73972.5,7.63,6.21,6.29,0,*72
1504292857.15,58680,24.75,73974.3,7.67,6.33,6.33,0,*78
1504292858.34,58681,24.75,73974.3,7.67,6.33,6.33,0,*79
1504292859.55,58682,24.75,73968.8,7.67,6.35,6.33,0,*7C
1504292860.74,58683,24.75,73966.3,7.67,6.25,6.33,0,*7C
1504292861.92,58684,24.75,73966.5,7.63,6.21,6.29,0,*70
1504292863.12,58685,24.75,73966.3,7.65,6.29,6.29,0,*7F
1504292864.3,58686,24.75,73958.5,7.63,6.29,6.29,0,*7A
1504292865.51,58687,24.75,73958.0,7.65,6.21,6.29,0,*75
1504292866.71,58688,24.75,73958.0,7.65,6.21,6.29,0,*7A
1504292867.92,58689,24.75,73958.0,7.65,6.29,6.33,0,*78
1504292869.15,58690,24.75,73948.8,7.65,6.17,6.21,0,*7E
1504292870.35,58691,24.75,73950.3,7.63,6.17,6.21,0,*79
1504292871.58,58692,24.75,73954.8,7.65,6.13,6.07,0,*7C
1504292872.78,58693,24.75,73956.5,7.65,6.07,6.07,0,*78
1504292873.98,58694,24.75,73960.5,7.63,6.17,6.21,0,*7C
1504292875.18,58695,24.75,73970.3,7.63,6.21,6.17,0,*7D
1504292876.41,58696,24.75,73968.3,7.63,6.17,6.13,0,*7F
1504292877.63,58697,24.75,73976.3,7.63,6.17,6.17,0,*7A
1504292878.81,58698,24.75,73972.0,7.63,6.29,6.21,0,*7D
1504292880.04,58699,24.75,73970.8,7.63,6.13,6.13,0,*74
1504292881.27,58700,24.75,73968.8,7.65,6.21,6.17,0,*76
1504292882.5,58701,24.75,73976.8,7.61,6.17,6.25,0,*77
1504292883.75,58702,24.75,73978.3,7.61,6.17,6.13,0,*71
1504292884.93,58703,24.75,73982.3,7.63,6.21,6.21,0,*76
1504292886.19,58704,24.75,73978.8,7.61,6.17,6.13,0,*77
1504292887.41,58705,24.75,73968.5,7.63,6.17,6.17,0,*70
1504292888.6,58706,24.75,73968.8,7.63,6.03,6.03,0,*73
1504292889.79,58707,24.75,73968.3,7.59,6.03,6.03,0,*7B
1504292891.01,58708,24.75,73968.5,7.61,6.03,5.99,0,*7F
1504292892.26,58709,24.75,73972.3,7.61,6.13,6.13,0,*7E
1504292893.46,58710,24.75,73968.0,7.59,6.11,6.13,0,*7F
1504292894.72,58711,24.75,73970.3,7.61,6.13,6.13,0,*77
1504292895.93,58712,24.75,73972.5,7.61,6.25,6.25,0,*74
1504292897.14,58713,24.75,73976.5,7.61,6.29,6.25,0,*79
1504292898.41,58714,24.75,73972.3,7.61,6.35,6.35,0,*72
1504292899.67,58715,24.75,73976.5,7.61,6.35,6.35,0,*73
1504292900.93,58716,24.75,73976.3,7.61,6.39,6.47,0,*79
1504292902.19,58717,24.75,73974.5,7.61,6.39,6.39,0,*71
1504292903.43,58718,24.75,73974.5,7.59,6.35,6.35,0,*75
1504292904.66,58719,24.75,73978.0,7.61,6.35,6.29,0,*72
1504292905.93,58720,24.75,73976.3,7.61,6.35,6.35,0,*75
1504292907.16,58721,24.75,73984.3,7.59,6.39,6.39,0,*7F
1504292908.41,58722,24.75,73982.8,7.61,6.39,6.39,0,*77
1504292909.64,58723,24.75,73984.5,7.59,6.39,6.39,0,*7D
1504292910.85,58724,24.75,73984.5,7.63,6.43,6.33,0,*74
1504292912.03,58725,24.75,73988.0,7.63,6.33,6.33,0,*72
1504292913.24,58726,24.75,73984.0,7.61,6.29,6.25,0,*7F
1504292914.46,58727,24.75,73980.5,7.61,6.29,6.25,0,*7E
1504292915.7,58728,24.75,73984.8,7.61,6.35,6.25,0,*7C
1504292916.93,58729,24.75,73978.8,7.61,6.25,6.13,0,*79
1504292918.14,58730,24.75,73978.3,7.61,6.11,6.11,0,*74
1504292919.32,58731,24.75,73980.8,7.63,6.29,6.21,0,*7F
1504292920.57,58732,24.75,73982.8,7.61,6.13,6.13,0,*76
1504292921.81,58733,24.75,73984.8,7.61,6.13,5.99,0,*76
1504292923.04,58734,24.75,73986.3,7.61,6.03,5.77,0,*70
1504292924.25,58735,24.75,73982.3,7.63,5.93,5.71,0,*7F
1504292925.45,58736,24.75,73984.0,7.63,5.71,5.51,0,*72
1504292926.67,58737,24.75,73976.0,7.63,5.51,5.27,0,*70
1504292927.89,58738,24.75,73976.3,7.63,5.27,5.05,0,*7E
1504292929.12,58739,24.75,73980.3,7.63,4.93,4.63,0,*70
1504292930.3,58740,24.75,73976.3,7.63,4.81,4.33,0,*78
1504292931.47,58741,24.75,73974.0,7.63,4.57,4.11,0,*72
1504292932.67,58742,24.75,73974.8,7.63,4.33,3.97,0,*7A
1504292933.87,58743,24.75,73976.5,7.63,4.23,3.97,0,*7A